Theta_e
318 318 320 319 322 323 322 321 322 324 325 325 326 326 326 326 328 327 327 326 326 326 326 327 327 327 327 327 327 325 321 314 310 310 308 310 319 324 323 325 324 325 325 317 313 308 305 304 303 305 307 309 309 305 305 306 305 308 302 297 294 293 290 292 290 291 293 291 290 292 292 294 292 294 296 298 295 295 295 295 297 298 298 299 299 301 301 303
320 318 318 321 322 322 322 321 323 324 325 325 325 325 325 326 327 327 327 327 326 326 328 329 329 328 327 325 327 324 320 320 312 308 309 320 324 324 323 323 323 323 322 313 311 305 303 302 303 304 303 301 310 301 306 303 305 302 298 297 292 291 291 292 293 293 292 291 293 293 294 295 294 296 296 293 294 294 293 295 296 296 297 299 299 299 300 300
321 317 319 321 321 322 321 321 323 324 323 324 325 324 325 326 326 326 327 327 327 326 328 328 328 326 324 325 322 323 322 319 316 302 308 327 324 324 323 323 322 322 317 309 306 303 303 303 304 302 302 299 300 299 305 299 301 298 298 293 290 292 291 294 295 294 295 295 293 293 294 294 294 295 297 293 291 294 292 292 293 294 296 297 299 300 303 304
320 319 318 321 321 321 322 322 322 323 323 324 324 324 325 325 326 326 327 326 326 327 328 327 325 325 324 323 322 319 321 315 306 303 310 325 326 324 324 323 321 319 311 308 306 305 305 304 303 303 303 300 301 302 296 297 300 297 294 290 291 292 290 292 294 294 295 295 295 294 293 293 295 296 295 293 290 292 293 294 293 293 294 296 299 302 304 303
320 320 321 321 321 321 321 322 322 322 323 324 323 324 324 325 325 326 326 327 326 326 328 326 325 321 324 325 319 322 321 307 305 307 312 325 325 327 327 323 323 315 308 306 304 306 307 308 310 307 304 296 299 296 293 297 300 295 290 293 293 293 290 293 293 293 293 294 295 293 292 295 296 294 293 292 289 289 294 295 296 296 296 297 298 300 301 300
320 321 320 320 320 320 321 321 322 322 322 323 323 323 324 325 325 325 326 326 326 327 327 326 325 325 324 322 320 323 310 291 308 307 321 324 324 324 323 323 325 319 309 305 304 304 303 304 304 303 298 296 294 293 295 296 300 289 291 292 294 293 291 294 293 293 292 294 293 293 294 294 293 293 295 294 292 293 297 299 297 298 299 298 299 298 297 297
320 320 320 320 320 320 320 320 320 321 321 321 322 323 323 325 325 326 326 326 326 327 325 326 324 324 323 322 320 322 307 305 308 312 322 323 323 321 322 323 323 319 309 304 308 305 303 302 303 300 298 295 294 294 296 297 302 294 288 292 292 294 292 293 292 295 292 292 293 294 296 292 293 290 294 292 295 297 297 298 298 298 298 298 296 296 296 297
319 319 319 319 319 319 320 320 321 321 322 322 322 324 324 325 325 325 325 325 326 325 324 324 324 321 322 324 323 306 305 303 306 313 319 322 314 312 317 309 307 311 310 306 308 311 312 306 301 304 296 294 298 295 296 296 295 291 290 292 292 293 293 293 292 293 295 294 294 295 292 292 294 293 292 292 295 296 297 298 298 298 296 296 296 296 296 297
319 319 320 319 319 319 319 320 321 321 321 322 323 324 325 325 326 325 325 324 323 323 324 325 324 324 320 320 318 306 300 312 311 312 312 311 310 310 311 309 310 309 311 311 312 313 316 304 306 305 295 294 298 295 296 295 290 293 291 293 292 292 293 292 293 293 295 296 297 292 292 294 294 295 292 294 295 297 298 297 296 296 296 296 296 296 296 296
319 319 319 319 319 319 319 320 321 321 322 322 323 324 325 326 326 324 324 324 323 323 324 325 322 320 320 318 315 301 310 317 316 311 312 311 311 309 309 309 310 309 312 309 312 310 309 305 305 304 299 296 297 292 296 295 290 294 293 293 292 292 293 295 295 294 293 295 296 294 291 293 294 295 288 296 296 297 296 296 296 296 295 296 296 296 296 296
319 319 318 318 319 319 320 321 321 322 323 323 323 324 324 325 324 324 324 323 322 324 324 322 322 322 321 322 312 298 318 316 311 311 312 311 311 307 306 309 310 312 308 308 305 307 311 310 312 313 308 296 297 294 294 294 296 294 293 292 292 293 293 293 294 294 293 292 293 292 291 294 297 293 289 294 296 296 295 296 296 296 295 295 296 296 297 297
318 318 318 318 319 319 319 321 322 322 322 324 324 324 323 323 324 324 324 323 324 324 324 323 319 323 319 305 302 305 319 316 311 312 312 312 311 308 309 310 311 309 308 302 306 310 310 312 316 310 297 304 291 294 294 297 295 293 293 290 290 292 291 292 292 294 293 292 292 294 289 290 291 291 295 295 296 295 295 295 295 296 296 296 295 295 295 295
318 318 318 318 319 319 319 320 321 322 323 323 322 322 322 323 323 324 323 322 323 321 326 322 320 323 323 302 306 317 318 311 313 314 312 312 316 310 311 312 312 312 312 308 309 312 312 310 311 301 304 301 293 293 295 298 294 295 294 291 289 291 289 293 294 294 292 294 293 294 285 290 291 293 296 296 295 295 294 293 294 295 295 295 295 294 295 296
317 318 318 319 319 319 319 320 321 322 322 320 320 320 321 323 323 323 322 321 322 322 323 322 326 326 314 304 314 320 318 313 315 313 311 312 312 314 309 314 315 313 315 311 312 313 314 310 306 304 306 299 294 300 294 294 295 291 293 293 289 287 287 292 293 293 291 294 293 294 286 289 293 296 294 295 296 294 292 293 294 295 295 295 296 296 296 297
317 318 318 318 318 319 319 319 321 322 322 322 320 320 319 321 321 323 322 323 325 324 322 322 326 324 304 306 317 323 324 313 308 311 314 310 309 311 309 313 315 315 313 313 313 316 316 314 310 301 296 303 300 297 291 291 292 294 289 289 291 288 290 292 293 293 290 293 295 293 286 289 292 293 294 295 295 294 292 292 293 294 295 295 295 295 294 296
317 317 318 318 318 318 318 319 320 321 320 320 319 319 318 320 320 321 322 317 320 321 324 329 326 319 308 306 314 320 317 309 306 313 313 316 311 310 311 312 315 317 316 312 315 319 315 310 301 300 301 304 300 294 291 292 291 293 291 290 289 290 290 290 291 294 295 291 294 292 287 290 291 292 294 295 295 294 292 293 293 295 295 295 295 295 295 297
317 317 317 317 318 318 319 319 319 320 319 319 319 320 318 319 321 322 322 321 328 329 329 317 316 320 303 312 322 312 307 314 314 314 313 314 314 313 311 313 311 313 316 316 318 318 314 306 302 305 305 297 297 298 292 289 289 289 292 288 292 289 291 289 289 293 294 292 289 292 287 288 292 292 293 294 294 294 292 292 293 294 294 295 296 296 295 297
316 316 316 316 317 317 319 319 319 319 318 318 317 319 321 321 321 322 322 324 330 327 325 328 319 313 304 313 304 305 312 311 313 308 313 312 312 312 313 309 312 312 313 310 315 309 308 303 306 297 296 296 294 294 291 285 287 289 290 290 290 291 290 291 290 290 291 292 289 289 289 290 292 295 294 294 295 294 293 293 293 293 293 294 295 296 296 296
316 315 315 316 316 317 318 319 319 318 319 320 320 321 319 320 321 317 310 315 320 315 312 305 306 301 291 304 309 312 312 316 312 312 310 309 314 314 314 315 312 310 306 305 303 307 304 303 304 297 290 289 289 290 288 290 292 292 292 291 291 289 290 289 289 291 290 287 288 288 288 290 293 293 295 294 294 293 293 293 293 294 294 296 296 296 296 298
315 315 315 315 316 316 318 319 318 317 317 320 322 325 320 315 315 309 308 306 303 306 307 307 311 309 308 307 307 310 316 314 312 312 312 313 310 311 312 313 311 311 304 300 302 303 304 293 287 285 288 290 292 291 292 292 292 293 293 294 291 291 293 292 289 290 291 288 288 289 290 291 292 293 294 296 293 292 293 292 293 294 296 296 295 295 296 297
314 314 315 315 316 316 317 318 317 317 316 319 324 317 309 312 306 297 300 304 307 310 309 307 308 305 304 308 309 306 309 313 314 310 311 313 312 311 309 308 304 300 298 300 302 305 306 291 287 290 290 292 291 292 292 292 294 292 290 291 290 293 289 292 291 290 294 288 287 290 290 291 293 294 295 294 293 292 292 292 293 293 294 296 296 296 298 298
314 314 313 315 315 316 316 317 317 317 315 321 320 316 315 311 313 311 311 299 307 309 311 309 309 308 309 310 310 309 306 309 310 306 311 312 313 307 307 307 303 297 300 301 301 298 292 287 290 292 293 294 294 292 293 290 289 290 290 290 290 289 291 290 290 289 291 290 287 289 287 289 292 294 294 292 293 293 294 295 294 294 294 294 296 296 297 298
313 314 313 313 314 315 317 316 317 316 322 324 320 315 311 307 306 310 314 303 302 308 309 307 308 307 310 311 311 311 308 299 299 305 303 307 310 305 305 302 300 300 302 302 297 290 291 291 293 294 293 291 293 293 293 288 289 288 290 287 285 289 286 286 290 290 292 289 286 287 286 288 292 294 294 294 293 294 298 298 299 298 297 296 296 296 296 297
313 313 313 313 314 315 315 317 316 319 318 317 312 309 307 306 306 310 319 304 300 304 307 307 309 307 305 304 308 309 304 302 302 299 308 306 304 303 304 301 298 298 296 296 297 295 290 292 293 294 292 292 290 291 287 287 289 288 289 285 285 284 284 284 286 290 292 293 291 288 286 288 293 289 290 292 293 295 296 297 296 296 298 298 299 297 299 295
313 312 312 314 314 315 316 317 315 315 314 316 308 307 305 306 305 307 316 303 305 303 308 307 310 306 307 310 312 308 305 305 303 305 307 304 300 306 301 302 300 289 297 298 295 290 289 292 292 292 293 293 290 287 282 282 287 285 284 287 285 285 284 286 288 287 285 284 290 287 284 286 290 290 289 291 291 290 294 292 293 294 294 295 295 295 297 299
312 312 312 314 315 314 316 317 314 314 321 314 311 306 306 306 308 302 312 293 288 298 308 303 311 304 309 307 309 307 305 300 303 305 307 305 304 306 301 297 300 294 296 293 290 289 289 292 291 289 290 291 291 288 286 285 283 285 284 287 288 287 286 286 287 284 283 283 286 288 283 281 288 289 291 290 290 290 293 292 292 293 294 294 295 295 295 297
312 311 312 313 314 314 317 314 317 317 312 312 305 307 306 307 306 312 299 289 287 296 301 307 308 305 311 306 307 307 296 299 309 308 305 307 304 308 304 297 297 292 292 289 291 285 293 291 290 286 287 289 288 288 287 288 284 286 286 288 288 287 286 286 285 282 284 286 284 284 284 281 279 288 291 291 291 292 291 292 293 293 294 294 295 295 295 295
311 310 311 313 313 314 316 311 312 313 312 305 303 304 305 306 308 312 298 281 280 301 300 303 307 312 311 308 309 302 300 303 302 303 305 307 307 306 305 299 297 295 294 293 288 286 290 291 291 290 287 285 284 286 287 289 286 287 288 289 287 287 287 287 283 282 285 282 283 283 283 282 280 288 291 292 289 291 291 292 293 294 294 294 295 295 295 297
311 310 312 313 315 312 318 318 319 313 302 304 302 306 305 308 309 301 289 280 287 298 309 304 312 310 308 306 304 303 303 303 300 302 307 305 308 305 298 298 297 295 297 297 290 287 290 290 289 291 289 285 287 287 287 287 284 289 289 289 289 288 287 286 283 284 284 282 282 279 279 281 282 288 291 290 289 289 292 293 294 295 297 294 295 296 296 296
310 310 312 311 315 321 313 310 301 302 301 301 305 305 308 309 305 292 282 276 296 288 302 305 305 300 305 301 299 304 300 301 301 303 307 303 305 305 299 302 300 297 293 294 291 292 291 294 295 291 287 290 287 287 288 287 288 291 289 287 286 285 282 284 283 283 282 281 282 278 282 282 280 287 288 287 290 292 292 293 295 297 296 297 298 297 297 297
310 310 312 312 312 311 311 306 305 303 302 305 305 307 310 307 291 286 277 285 297 293 303 300 299 304 300 300 296 301 300 299 300 301 301 304 303 301 299 297 301 296 292 292 288 291 292 292 293 290 293 291 290 289 287 286 287 288 285 284 284 284 284 282 283 283 281 283 281 281 282 284 280 284 290 292 293 293 292 292 293 294 295 297 298 298 297 296
309 310 310 308 308 310 311 309 304 304 304 305 308 311 307 291 290 283 282 298 286 290 290 296 298 296 299 298 295 294 291 300 298 297 294 291 290 291 287 288 286 286 286 287 288 292 290 289 290 290 291 290 289 286 287 288 288 286 283 285 283 284 283 282 282 281 283 283 282 281 285 281 280 286 291 291 292 293 294 294 294 294 295 296 297 298 298 298
309 309 309 307 310 304 299 299 304 303 306 303 311 309 294 287 279 288 285 286 286 292 292 298 295 296 294 290 292 295 293 293 297 297 296 294 292 289 291 291 289 290 285 287 287 287 287 290 291 290 290 291 290 286 285 284 286 286 283 281 283 281 280 277 282 283 283 281 281 281 285 281 286 291 293 291 293 292 293 295 296 295 296 296 297 297 297 298
309 310 304 304 303 303 303 305 303 305 306 310 309 295 290 283 282 289 282 286 286 291 295 296 296 296 289 292 294 291 291 294 291 295 296 289 290 288 292 293 293 289 290 288 286 286 284 285 288 290 287 287 290 288 285 284 283 284 284 285 283 282 280 278 281 279 279 281 282 280 280 282 283 287 294 292 292 294 293 293 294 295 296 296 296 296 295 295
308 309 306 306 306 304 304 304 305 305 306 311 304 293 284 284 287 286 285 285 285 292 292 286 295 292 289 289 290 293 294 290 295 292 293 291 288 287 289 289 293 290 289 286 287 285 287 286 287 289 288 289 289 289 289 287 284 286 286 286 284 283 284 283 283 281 280 280 280 280 281 284 287 293 293 292 292 293 293 294 294 294 295 294 295 295 296 296
310 313 315 309 310 306 305 305 305 305 310 309 295 288 287 288 288 287 290 297 293 288 290 291 294 290 288 290 288 291 295 289 294 288 288 288 287 286 288 288 287 288 286 286 287 285 285 284 287 290 291 286 286 289 289 287 284 285 286 284 283 285 284 282 277 277 278 278 280 283 284 289 293 291 292 292 292 293 292 293 293 294 295 295 295 296 297 299
314 313 311 312 310 306 304 304 305 306 310 304 291 289 288 285 286 290 294 295 295 297 290 285 286 288 285 286 289 289 289 292 289 289 286 288 286 286 288 288 290 289 287 287 285 286 284 285 288 289 287 287 288 287 288 289 288 284 284 283 287 287 285 282 282 280 281 280 281 283 281 281 283 282 291 291 292 291 292 292 292 294 296 296 296 297 299 300
312 310 309 311 308 306 304 304 306 310 310 297 291 294 284 286 290 291 293 293 294 293 291 289 287 289 287 287 288 290 292 287 290 286 286 286 287 293 288 289 290 290 288 286 286 286 286 283 285 287 287 288 289 288 287 290 288 287 285 285 285 284 284 283 282 276 275 275 280 282 283 281 283 286 287 288 288 290 291 292 294 294 294 296 296 296 297 297
311 309 308 309 308 306 307 303 307 311 304 289 292 292 286 285 289 292 292 293 293 296 291 290 288 284 285 288 289 287 288 287 288 288 286 286 285 290 290 290 288 289 289 288 284 286 287 283 284 285 287 288 287 285 285 284 288 287 287 285 283 283 282 283 283 282 282 277 278 279 282 281 288 288 289 289 290 291 292 291 293 293 295 295 295 297 298 298
309 306 306 308 308 306 306 306 313 307 296 291 292 290 282 284 289 291 291 293 291 289 292 293 286 286 284 285 288 287 287 287 288 286 286 286 288 292 289 291 288 287 289 287 286 286 285 285 283 284 285 286 283 283 283 283 283 282 282 283 283 282 282 283 283 282 282 278 279 277 276 283 291 293 293 292 292 292 293 294 294 295 295 295 296 297 297 297
306 302 305 310 309 307 307 310 297 292 292 285 284 283 283 283 289 291 293 292 292 293 292 294 291 288 286 285 285 287 287 287 287 287 288 285 286 286 288 287 288 288 286 283 285 285 284 284 283 284 282 281 283 281 282 282 282 283 283 283 283 283 283 281 280 278 280 281 277 278 278 283 292 292 293 291 292 293 294 293 294 295 294 295 296 296 297 296
304 293 301 311 308 310 310 297 290 288 293 290 288 285 286 292 284 289 288 289 290 290 289 291 290 290 286 286 288 287 286 287 286 286 287 287 289 288 288 289 288 287 285 285 285 286 285 284 283 281 283 283 282 282 282 282 281 278 281 283 283 283 282 282 278 280 278 279 276 279 277 281 292 291 291 291 291 291 292 292 293 294 295 294 295 296 297 297
305 300 309 311 309 312 306 290 293 292 285 283 285 289 290 288 286 288 287 288 285 290 291 288 293 289 286 287 284 284 285 287 286 287 288 285 281 284 288 288 288 289 287 284 287 284 289 284 283 282 281 281 282 282 283 282 282 282 281 281 282 282 283 281 282 281 282 278 278 278 276 282 292 291 291 291 291 292 291 292 292 293 294 294 295 296 297 296
305 304 308 313 310 312 304 291 292 288 285 282 285 286 290 287 288 283 284 288 289 286 293 291 290 289 287 287 286 284 284 285 289 288 287 287 285 288 288 288 284 284 285 285 283 286 284 283 283 281 282 281 282 281 280 279 280 281 282 282 283 283 282 284 283 283 280 280 281 280 276 280 293 289 291 290 290 291 291 292 291 292 293 295 295 296 296 296
303 303 299 306 310 308 300 295 290 288 285 282 282 282 284 287 288 288 289 287 291 288 289 290 291 289 284 284 280 282 280 284 285 286 287 286 284 287 288 287 286 285 288 289 289 285 284 283 283 281 277 274 275 279 282 284 281 281 284 283 285 283 283 281 280 280 276 278 281 278 279 286 292 292 292 291 291 291 292 292 293 292 293 294 295 297 297 297
297 289 295 301 303 300 294 295 293 289 285 282 283 285 287 285 288 289 288 288 289 290 286 290 287 291 286 285 282 281 281 281 283 283 284 286 283 284 284 287 288 286 287 287 287 284 283 282 282 282 281 281 283 284 286 286 284 281 282 282 281 283 283 284 282 281 279 279 280 283 284 286 289 292 292 293 293 292 293 293 293 294 294 294 295 296 296 295
298 293 290 292 293 292 290 292 289 292 289 291 289 285 284 287 287 286 285 283 288 285 284 289 289 287 285 288 284 282 280 281 280 279 281 286 283 283 283 286 287 288 288 288 287 283 282 281 282 280 282 284 285 286 286 286 283 283 283 282 282 282 283 282 281 280 282 282 280 284 287 285 288 291 291 291 292 292 293 293 293 292 292 293 293 294 295 294
295 290 292 287 289 290 291 290 291 289 290 290 286 288 286 286 286 284 287 288 285 283 284 286 286 288 290 290 287 284 281 280 279 282 282 285 282 282 283 283 283 287 286 285 286 282 282 280 283 282 281 283 284 284 285 284 283 283 283 283 282 283 282 281 282 285 285 281 281 283 284 283 288 291 292 292 292 291 292 294 293 293 293 292 293 293 293 293
295 289 289 287 291 286 288 290 292 294 290 290 286 288 285 285 285 289 285 284 284 284 286 284 285 288 290 291 288 285 281 284 283 281 281 282 283 283 283 283 284 285 283 282 280 279 281 281 280 281 279 281 282 283 283 283 283 283 283 283 283 283 283 283 284 284 284 284 286 287 286 286 290 291 292 292 293 292 293 293 292 292 292 292 293 293 293 293
291 293 289 288 289 285 288 288 290 293 288 289 286 287 289 286 287 286 287 283 282 283 288 283 285 290 291 290 288 286 286 289 287 285 286 283 282 284 284 286 281 281 282 280 280 278 280 280 283 278 276 279 282 281 281 282 282 280 281 282 283 284 284 284 283 284 283 283 285 286 285 285 291 293 292 293 293 292 291 291 292 291 293 293 293 293 293 293
294 293 296 292 288 287 288 289 289 289 288 285 285 289 288 289 289 290 288 292 290 285 283 286 290 286 287 289 288 288 293 291 292 291 290 287 286 287 285 285 283 280 281 279 280 278 279 280 279 278 276 277 278 281 281 281 280 279 280 281 282 282 279 282 283 284 282 282 283 282 281 283 289 291 290 291 291 291 290 291 291 292 295 294 293 293 292 292
298 296 296 296 291 288 286 287 287 285 287 291 293 290 289 292 293 290 286 291 290 291 290 291 290 287 286 285 287 292 292 291 291 290 290 288 289 286 286 287 286 282 281 281 281 278 278 280 279 280 277 276 277 279 280 278 276 278 280 282 283 283 284 283 285 284 286 286 281 280 281 288 289 290 289 290 291 290 290 291 292 292 292 292 292 292 292 292
Wind_Speed
11 13 15 15 12 12 14 14 13 14 13 13 12 11 12 12 11 10 10 10 10 10 10 9 8 8 7 6 5 3 4 2 6 8 9 3 6 10 11 12 13 14 12 8 9 6 6 3 4 4 2 1 1 1 2 1 2 1 1 1 1 2 5 3 4 3 4 3 4 5 3 1 3 3 2 1 3 4 4 4 3 4 4 4 3 1 2 1
8 12 15 14 14 13 10 11 12 13 14 13 12 12 12 12 11 10 9 9 10 11 9 8 7 6 5 5 2 2 1 2 4 9 7 3 11 14 12 12 11 11 9 6 6 6 5 3 2 2 3 2 3 1 1 1 2 2 3 2 2 4 1 4 2 6 1 4 6 3 1 1 4 0 1 2 2 8 6 7 6 5 7 7 5 3 3 3
6 9 13 12 13 13 10 9 10 9 9 10 11 11 11 11 10 10 11 10 8 10 8 7 6 5 5 1 3 2 1 2 1 7 9 13 13 14 13 11 10 10 5 5 5 7 5 7 2 4 3 3 4 2 1 2 2 2 1 3 3 4 4 6 6 4 7 4 5 4 3 1 3 1 2 2 4 4 4 3 5 5 2 1 3 4 2 3
6 8 9 10 11 12 15 12 11 10 10 10 10 10 10 10 10 9 9 8 9 9 9 7 8 7 6 6 6 3 1 1 2 6 10 15 13 14 13 11 9 9 7 8 5 6 4 5 4 5 3 2 1 3 4 3 1 4 4 3 2 3 3 4 4 5 5 5 5 4 3 2 2 1 1 3 5 5 1 3 3 3 3 2 1 5 2 2
7 9 7 7 8 9 9 10 10 9 9 10 10 10 10 10 10 9 8 8 9 10 12 7 5 3 3 7 5 1 1 1 1 5 10 15 14 13 10 10 8 6 6 8 7 5 5 3 3 2 1 3 3 3 2 2 2 4 4 4 4 4 6 3 5 6 4 5 4 3 2 1 2 2 3 3 4 0 0 3 1 1 2 1 2 1 2 4
8 9 7 6 7 8 9 7 8 9 9 9 9 10 10 10 10 10 9 9 9 8 12 7 2 4 1 2 1 0 0 1 3 6 14 15 16 15 10 9 8 6 6 6 4 3 3 3 3 1 2 3 4 4 0 1 1 5 3 3 5 5 6 3 4 4 4 2 2 0 3 2 3 3 2 5 6 4 1 0 2 2 1 0 1 3 4 4
8 8 8 8 8 9 9 9 9 9 9 9 10 10 10 9 9 9 9 9 8 7 10 7 3 2 3 1 1 1 4 2 4 8 14 14 16 13 12 7 7 4 4 5 3 3 3 2 3 3 3 5 4 4 4 3 0 5 3 3 7 6 7 5 4 4 2 5 3 2 3 3 2 4 2 2 5 7 5 3 3 1 1 3 4 4 4 4
8 7 7 7 8 9 10 9 8 8 9 9 10 9 9 9 9 9 9 8 7 5 7 5 3 3 4 1 0 3 3 2 9 9 13 14 13 12 12 3 4 4 2 3 4 3 4 3 2 1 4 3 0 3 4 4 7 6 5 3 3 4 4 3 2 2 2 0 1 2 3 4 3 2 3 6 7 7 7 4 2 2 3 4 4 4 4 4
8 7 7 7 7 8 8 8 8 9 9 9 9 9 9 8 8 9 7 6 5 6 6 3 6 2 3 1 2 1 2 2 7 10 12 13 12 10 10 6 10 3 2 2 3 4 2 3 2 2 2 4 2 4 4 2 3 3 5 4 3 3 3 2 3 1 0 0 0 3 5 5 1 5 5 13 8 5 4 4 4 4 4 4 5 5 5 4
8 8 8 7 6 6 7 8 9 9 9 9 9 9 8 8 8 7 7 5 5 7 4 3 7 4 1 1 2 1 1 5 6 8 11 11 10 9 10 8 9 4 1 4 5 8 4 3 4 5 12 8 4 4 3 6 3 6 6 5 5 4 3 1 1 1 1 2 1 1 3 3 3 1 5 2 3 5 4 4 4 5 5 5 5 4 4 4
9 8 8 7 6 5 6 7 8 9 9 9 9 8 7 7 7 7 6 5 5 5 3 3 4 4 2 2 1 2 2 6 4 6 10 10 9 10 10 9 8 3 6 5 6 4 4 4 4 4 3 2 4 5 4 1 6 7 8 7 4 2 1 1 1 1 1 2 2 3 5 4 1 1 7 3 4 5 5 6 5 5 5 5 5 5 4 4
9 9 8 7 6 5 6 6 7 8 8 8 7 6 6 6 7 6 6 5 3 1 3 4 5 0 1 10 8 1 4 3 5 5 7 7 6 5 6 8 8 8 3 4 4 4 3 2 2 2 2 1 3 4 4 3 4 7 5 3 2 3 2 3 3 2 0 1 2 2 5 4 4 6 10 4 5 5 4 4 5 6 6 6 5 4 4 5
9 8 8 7 6 5 5 6 7 7 7 5 4 4 5 6 6 6 6 5 2 4 3 4 2 1 1 6 1 3 1 4 4 6 9 8 6 3 4 5 7 8 6 6 3 4 2 2 2 10 4 2 2 0 3 1 3 3 2 2 2 2 3 5 1 1 2 0 1 1 4 2 10 13 2 6 5 4 4 4 5 5 5 4 4 4 4 4
8 8 7 6 6 5 6 6 6 6 4 2 5 6 5 5 5 6 7 6 5 4 3 3 2 1 2 2 1 2 3 1 5 6 9 9 10 2 7 4 5 4 4 5 3 3 4 6 12 8 3 3 3 3 5 2 1 1 2 1 1 2 1 4 2 2 3 1 2 1 1 4 4 7 4 4 5 5 4 5 6 5 5 4 4 4 4 4
9 8 8 7 6 6 6 6 6 6 6 6 7 7 6 5 4 5 7 4 3 3 3 2 2 1 3 1 1 3 4 1 5 4 4 8 8 3 7 8 4 4 3 4 1 3 2 3 1 5 3 2 4 3 3 2 3 1 1 1 2 2 1 2 2 0 2 0 2 1 2 4 2 5 5 4 4 4 4 5 5 4 4 4 3 4 4 5
9 9 8 7 6 6 6 7 6 6 6 6 7 7 6 3 5 5 6 3 6 2 1 0 1 0 7 2 1 0 1 4 7 4 2 3 4 2 5 7 6 1 1 1 1 2 1 5 8 3 3 0 0 1 3 1 1 2 2 1 1 2 2 1 1 1 1 2 2 3 4 7 1 4 5 5 5 4 5 5 5 5 5 4 3 3 3 2
10 9 9 8 7 6 5 6 7 6 6 7 7 5 3 2 6 7 8 6 3 1 0 1 3 1 2 2 1 1 2 1 4 2 5 1 1 3 6 4 1 3 1 2 1 1 1 4 1 1 1 2 2 2 0 3 1 3 4 3 1 1 1 1 1 1 3 1 1 4 2 5 4 3 5 5 6 6 5 5 5 5 4 3 3 2 2 1
10 10 9 9 8 6 6 6 6 6 6 7 4 3 3 6 9 4 4 3 1 2 2 0 0 2 3 1 1 2 3 2 5 5 4 3 2 4 3 1 2 3 2 1 1 2 1 1 1 3 3 5 7 3 0 0 0 2 3 3 1 2 4 0 1 0 3 2 4 3 6 12 10 12 7 10 8 6 6 6 5 5 4 4 3 2 2 2
10 10 9 8 8 7 6 6 5 5 5 5 5 4 6 7 4 5 7 4 2 1 0 4 5 1 1 1 4 3 2 2 3 2 4 6 2 2 3 2 3 3 1 0 2 1 2 0 0 2 4 7 7 4 3 2 3 3 3 2 3 2 2 1 2 1 2 3 3 5 6 6 7 5 4 7 8 8 6 5 4 4 3 1 2 2 2 2
11 10 9 8 7 7 5 5 5 5 3 1 0 1 1 1 1 1 6 9 8 2 2 2 1 2 2 4 3 4 2 3 2 3 4 2 4 5 2 2 2 1 3 2 1 2 1 6 5 2 2 4 3 3 3 4 3 4 3 2 5 1 0 2 3 2 3 3 5 6 7 7 8 6 7 5 9 5 5 5 4 4 3 4 4 4 4 2
11 10 9 9 8 7 6 5 5 4 2 2 1 1 2 1 2 1 1 2 1 3 2 1 3 3 2 1 2 5 1 0 0 2 3 4 2 2 0 0 1 1 3 1 1 2 0 7 4 3 2 2 3 3 3 4 3 2 3 4 5 1 2 2 2 1 0 3 4 4 6 9 8 7 7 4 8 6 5 5 5 5 5 5 5 5 3 2
12 11 10 9 9 8 8 6 5 4 2 2 1 1 0 1 0 1 1 2 1 1 4 2 3 2 1 1 2 2 2 1 2 6 2 8 2 0 2 0 3 3 0 1 0 3 7 5 1 2 1 3 3 2 2 2 2 4 3 4 3 3 5 2 2 1 1 0 6 5 9 14 8 7 3 7 5 3 5 3 3 4 6 5 5 4 2 0
12 11 10 10 9 8 8 7 7 4 1 1 1 1 0 1 3 1 1 6 3 2 0 1 1 3 1 3 1 2 1 4 1 4 7 7 0 2 2 2 4 1 3 4 0 3 5 1 1 2 2 3 2 1 3 2 1 3 4 2 2 1 4 4 1 2 4 3 3 5 9 13 10 3 2 3 3 1 1 0 0 1 1 1 1 3 4 2
13 11 10 8 9 7 7 7 7 3 2 2 4 1 1 2 3 1 1 0 2 2 2 1 1 1 2 1 2 3 2 2 1 6 5 4 2 3 1 4 4 3 4 6 6 6 3 1 1 2 2 2 2 1 6 4 1 4 3 1 1 3 1 2 6 8 10 0 1 8 6 5 1 3 1 0 2 1 1 1 1 2 3 3 1 1 1 2
12 11 10 9 9 7 7 5 1 1 2 2 3 1 1 1 2 1 0 1 1 1 2 0 1 1 1 1 1 0 1 1 1 1 2 3 3 1 1 1 1 2 2 2 7 9 3 1 1 2 3 1 1 1 4 3 1 1 1 1 1 1 2 4 7 8 2 1 1 4 5 1 1 2 4 2 1 2 3 3 4 4 4 4 4 4 4 4
13 12 12 9 7 6 3 0 1 2 1 2 1 1 0 1 1 1 0 0 0 1 0 1 1 1 1 1 2 2 0 0 1 1 0 1 3 1 1 2 1 3 2 5 5 3 1 0 1 1 1 1 1 1 0 0 1 1 1 1 2 1 1 4 5 3 2 1 2 1 2 4 1 1 1 2 3 3 3 4 5 4 5 5 5 4 4 4
15 13 12 10 8 6 1 1 1 1 0 1 2 2 1 1 2 1 1 0 1 1 1 1 0 1 0 1 0 0 1 1 1 1 0 0 1 1 2 1 2 3 2 1 1 1 0 2 3 0 1 1 2 1 1 2 1 0 1 1 1 1 2 2 2 1 2 2 1 4 2 1 5 3 2 3 0 1 3 5 5 5 5 5 5 5 4 4
14 14 12 10 8 5 1 3 2 1 0 1 3 2 2 2 2 1 1 0 1 1 0 1 0 0 1 0 3 1 0 1 1 1 1 1 1 0 1 1 2 3 1 1 0 0 1 1 1 0 0 0 1 1 0 1 0 0 1 1 1 0 2 2 1 4 2 1 1 1 2 1 3 3 1 0 1 2 5 6 5 6 5 5 5 4 5 4
13 14 13 8 7 5 3 1 1 1 0 1 1 2 1 2 1 1 1 1 0 0 2 1 3 1 0 0 0 2 1 1 1 2 1 0 1 0 2 1 3 4 2 2 4 1 0 1 0 2 1 0 1 1 1 2 0 1 1 1 1 1 1 2 1 2 1 2 1 1 2 0 5 1 0 1 1 2 2 4 5 4 1 5 5 4 4 3
14 14 12 7 4 1 2 3 5 1 1 1 1 1 2 1 1 1 1 3 1 0 2 1 0 1 1 0 2 3 3 1 2 3 1 2 0 1 2 1 1 2 4 7 10 3 2 2 3 1 1 0 1 0 1 1 2 2 1 0 1 1 1 1 3 1 2 0 1 2 2 1 2 2 4 1 1 1 1 2 2 2 1 2 1 3 3 3
13 14 13 6 3 0 2 2 2 1 1 1 2 2 2 1 1 0 1 1 1 0 1 1 1 1 2 0 1 2 3 1 3 3 0 0 1 3 1 1 0 1 3 3 4 2 2 1 0 1 2 2 1 1 2 0 2 1 1 1 2 1 1 0 1 1 2 0 1 1 1 3 2 1 2 1 1 2 2 1 4 3 1 1 1 1 1 2
13 11 13 8 0 2 2 1 2 2 3 3 3 2 0 0 0 1 1 0 1 0 1 0 0 0 2 1 3 3 2 1 1 3 2 2 3 3 5 2 1 2 1 0 0 2 1 1 0 2 2 1 0 1 0 1 1 0 2 1 2 1 1 2 1 3 1 0 1 1 2 1 4 7 1 3 3 2 2 3 2 1 1 2 1 1 0 1
12 11 7 9 2 4 3 1 2 2 3 2 2 0 0 0 1 0 1 1 0 1 0 0 0 2 0 1 1 2 2 1 3 0 1 1 1 2 0 2 1 0 1 0 1 0 0 0 2 1 0 2 1 2 2 2 1 3 2 2 2 2 1 1 1 1 0 1 1 1 1 1 5 2 1 4 2 3 3 3 1 1 0 0 1 2 3 4
9 10 5 4 8 4 2 1 1 1 1 1 0 0 1 1 1 1 2 1 1 1 3 1 0 0 4 2 0 0 1 0 0 1 0 0 0 0 1 0 1 1 1 1 0 0 1 1 0 0 1 1 1 2 1 2 2 1 1 1 1 2 1 0 1 0 2 5 1 4 1 2 2 2 1 5 4 2 3 1 1 0 0 1 1 2 4 4
5 3 4 1 3 4 1 0 0 1 1 1 1 0 1 2 1 0 1 0 1 0 0 1 0 1 1 1 0 1 1 0 1 1 0 0 0 1 0 1 2 2 1 1 0 1 2 1 0 0 1 2 2 0 1 1 1 2 1 0 1 1 0 1 1 1 1 3 4 0 3 3 1 1 2 2 2 1 2 1 1 1 2 1 2 3 4 4
2 2 2 2 2 0 1 2 2 3 1 0 1 0 2 1 0 0 0 0 2 1 1 1 0 1 0 1 1 1 2 0 0 0 0 1 0 1 0 1 1 2 1 1 0 0 2 1 0 2 1 2 1 2 1 1 0 1 2 1 1 1 0 1 1 1 1 1 5 1 4 3 1 1 2 0 1 1 2 1 1 2 2 1 3 4 3 2
1 4 1 2 2 2 2 3 3 2 1 1 2 2 1 1 0 1 2 1 1 1 2 3 2 1 1 2 1 0 1 1 1 1 1 0 0 1 1 0 1 1 1 1 2 0 0 2 0 1 1 0 1 1 0 0 0 1 0 1 1 1 1 1 1 0 1 1 3 0 2 4 5 3 1 1 1 3 2 2 4 2 1 1 3 4 2 1
0 1 2 1 1 3 3 3 1 1 0 2 0 2 0 1 1 1 2 2 0 1 0 1 0 1 1 1 1 2 0 0 1 3 0 0 1 1 1 1 2 2 0 1 1 1 1 2 1 1 1 1 1 1 0 0 1 0 1 1 1 0 0 1 1 2 3 3 3 3 0 3 3 5 1 3 4 5 4 3 1 3 1 1 1 2 3 4
1 1 1 0 2 2 3 2 0 1 2 2 1 1 0 0 1 1 2 2 1 1 0 0 1 1 0 0 1 1 1 1 0 0 0 0 1 1 0 0 0 1 1 0 2 1 0 0 1 1 1 0 0 0 0 1 1 1 1 2 0 1 0 0 0 1 1 3 3 5 2 5 3 1 6 5 5 5 5 5 2 4 2 2 2 2 2 2
1 1 1 1 1 2 1 1 1 2 1 1 1 0 0 1 0 1 1 2 1 1 0 1 0 1 0 1 0 2 0 0 0 1 0 1 2 2 1 2 1 0 1 1 0 0 0 1 1 0 1 1 1 2 1 2 3 0 1 0 1 0 1 1 0 1 1 1 1 2 5 3 1 1 3 2 6 6 7 5 5 3 2 2 2 1 2 2
0 0 1 0 0 2 0 4 6 3 1 1 2 1 0 1 0 0 2 2 1 1 0 1 0 0 2 1 1 1 1 1 0 0 0 0 0 0 2 2 4 1 1 2 2 1 0 1 1 0 1 2 2 1 0 1 1 0 1 2 1 1 1 1 2 1 1 1 1 0 8 7 8 3 2 3 2 4 2 6 4 2 1 2 2 2 1 3
1 1 1 0 0 0 2 3 2 0 0 1 0 0 0 1 2 1 1 1 1 1 0 0 1 1 0 0 0 1 0 1 0 0 1 1 1 1 0 4 2 1 1 1 1 0 1 0 0 3 2 1 0 0 0 0 1 1 0 1 1 0 1 2 1 2 1 0 1 1 0 11 5 1 1 1 2 3 2 1 3 1 1 2 2 1 1 1
0 0 1 1 1 0 3 3 1 1 2 0 2 0 0 0 0 2 1 0 0 2 1 0 1 1 2 1 1 1 0 1 2 0 0 1 0 0 2 3 4 4 0 1 1 0 2 0 0 2 1 1 0 1 1 2 1 1 1 1 1 0 1 1 1 1 1 1 0 1 2 9 5 0 0 1 0 0 1 2 3 2 2 3 2 1 1 2
1 1 1 0 2 1 2 1 1 1 1 0 0 0 1 0 0 0 0 0 0 0 1 0 0 2 1 1 1 2 1 1 3 1 0 0 0 1 2 2 4 1 1 1 2 1 1 2 2 2 2 1 1 0 1 0 0 1 1 2 2 2 2 1 1 0 1 6 7 5 6 4 2 1 1 1 1 1 3 4 4 4 4 4 2 1 1 1
0 0 0 1 1 2 1 0 2 4 1 2 1 1 0 0 2 0 0 0 0 0 0 0 0 0 1 1 1 1 1 1 0 1 1 1 1 1 1 3 2 1 3 2 0 1 0 1 1 1 0 1 1 1 1 0 2 2 0 2 1 4 3 2 0 0 2 3 6 3 6 8 2 0 2 2 1 2 4 4 4 5 5 4 3 0 1 1
0 0 1 1 4 4 3 1 2 4 4 2 1 1 1 1 1 2 1 0 0 1 1 1 1 1 2 1 2 3 3 2 1 1 1 0 0 0 1 2 3 2 1 1 1 0 0 1 1 3 3 6 2 1 0 1 1 1 2 3 4 2 3 1 2 1 7 3 6 9 6 11 13 15 11 11 7 6 6 6 4 2 3 3 2 1 1 2
0 1 0 0 2 4 3 3 1 1 2 3 1 3 1 1 2 1 2 0 0 0 0 0 1 2 1 0 0 1 0 3 2 0 2 1 1 1 2 3 2 3 1 1 1 0 0 1 5 5 6 7 0 1 2 3 3 3 3 4 5 5 5 6 8 8 3 1 12 4 12 9 16 14 9 4 3 5 6 6 7 5 5 4 4 2 2 2
1 1 1 1 1 1 0 1 1 1 0 0 1 0 3 2 1 1 0 0 0 1 0 0 0 2 2 1 3 0 1 1 1 2 1 0 2 0 1 1 1 2 1 0 0 1 1 2 2 1 4 3 4 3 2 2 5 4 5 5 7 8 7 11 11 13 2 5 13 3 2 5 16 15 12 10 5 5 6 8 6 4 5 5 2 1 2 3
1 2 1 0 1 1 0 1 1 1 3 1 1 1 1 2 1 1 1 0 1 0 2 1 2 6 5 1 1 0 2 0 2 1 3 2 1 2 0 1 0 3 0 0 1 0 1 3 0 0 4 5 8 9 6 7 3 2 6 7 6 8 13 14 14 10 10 11 12 13 11 15 19 20 15 11 7 5 7 6 5 3 5 5 2 1 1 2
1 1 0 1 2 2 1 1 0 0 1 1 0 2 3 3 3 0 0 2 1 1 1 1 2 2 3 3 1 1 3 1 1 1 2 3 0 1 3 3 2 1 1 1 1 1 1 3 4 0 2 5 1 3 1 0 1 5 8 8 9 11 9 11 8 9 6 9 17 19 14 18 21 18 9 8 8 5 4 5 6 5 2 2 2 1 1 2
1 0 0 4 1 0 0 0 0 1 0 1 0 0 1 2 2 4 1 1 0 4 4 3 2 2 2 1 2 3 3 1 2 1 3 3 1 2 2 1 7 5 2 2 1 2 1 2 1 0 2 4 1 0 1 3 4 7 11 12 12 9 7 7 9 9 7 14 8 3 7 13 18 9 4 4 3 3 4 5 5 4 1 1 2 1 2 3
0 0 0 0 0 1 0 1 0 1 0 0 1 1 1 1 1 4 0 2 3 3 1 1 0 2 0 0 5 2 1 2 2 1 2 2 3 2 3 1 4 8 6 4 2 3 4 2 1 1 0 4 1 1 2 2 5 7 11 13 14 11 10 3 7 5 12 9 4 7 11 13 8 3 5 5 2 2 3 4 4 5 6 3 2 1 3 3
Wind_Direction
327 324 322 324 337 359 354 342 343 330 347 360 347 343 349 344 333 329 329 327 322 315 308 299 296 293 292 308 327 353 345 322 325 49 60 50 277 314 318 316 315 315 319 312 308 271 279 170 154 234 155 154 328 85 286 28 336 312 258 193 89 86 70 6 21 48 141 120 144 164 171 245 143 180 115 197 223 233 260 237 207 206 210 211 228 229 129 132
325 324 314 322 345 347 342 333 338 338 349 344 340 349 343 334 325 322 325 326 321 313 305 297 287 286 310 300 295 218 345 298 305 50 87 301 2 344 338 328 323 316 316 285 270 301 294 154 161 225 174 93 238 54 262 66 311 20 294 350 74 20 56 1 62 26 315 125 147 132 142 294 55 298 97 269 235 189 226 226 212 221 212 210 220 218 199 180
330 309 307 332 336 328 327 330 324 325 336 339 339 339 331 321 321 330 325 314 309 314 308 294 290 288 285 199 225 228 143 259 238 11 11 8 354 345 336 330 319 314 282 292 311 305 311 323 336 289 100 88 332 142 210 17 339 108 66 48 56 71 72 42 34 58 18 99 115 125 111 297 81 320 132 240 297 304 259 283 165 197 210 147 183 176 98 78
320 303 314 327 323 323 323 332 332 335 342 336 335 330 320 316 319 314 297 304 310 307 301 294 294 276 250 197 180 188 174 320 38 313 10 351 346 334 331 322 317 309 287 256 277 298 301 264 280 250 100 76 181 31 56 347 3 344 48 31 136 178 115 39 38 33 31 352 110 94 97 248 155 138 31 297 321 236 135 47 27 2 11 4 93 135 152 197
312 304 313 311 309 309 303 308 305 330 336 331 327 317 314 313 310 302 305 311 308 303 291 310 305 278 186 193 186 191 148 307 16 329 350 346 338 324 317 319 302 308 300 302 300 273 273 274 267 295 189 134 137 113 41 22 66 72 53 31 19 73 82 79 62 23 3 9 77 128 188 66 64 219 220 251 241 309 71 92 27 344 9 320 321 323 177 198
310 308 313 311 305 300 296 307 333 334 328 319 314 313 308 306 302 309 318 311 300 296 288 318 296 85 181 5 268 213 74 271 335 347 334 343 337 325 320 314 295 294 296 303 283 297 279 206 233 252 37 62 15 75 316 70 267 92 60 45 40 39 104 88 77 3 347 11 65 333 37 327 245 273 218 211 231 260 2 353 177 202 205 250 262 252 271 265
316 315 319 319 314 309 319 335 334 321 309 309 309 303 300 302 305 311 312 302 292 280 286 316 41 116 104 3 282 295 65 101 345 319 339 340 333 338 320 299 280 252 271 279 299 295 269 257 246 97 119 97 75 83 52 52 87 94 114 99 54 57 73 73 80 15 21 20 40 351 300 272 284 274 77 274 252 261 263 251 136 176 188 221 239 239 240 241
316 316 314 317 324 324 326 323 314 302 298 296 293 297 303 304 302 298 291 284 279 281 277 286 77 86 77 355 134 78 48 341 331 323 335 342 339 346 332 264 298 287 305 1 347 327 349 324 78 67 41 77 30 79 315 88 52 90 95 89 100 84 87 102 112 88 5 77 348 290 275 265 232 263 7 257 245 231 233 179 145 191 219 228 232 245 245 244
322 319 319 327 326 319 311 304 299 296 293 292 298 302 302 299 287 280 278 283 315 324 310 242 188 156 41 19 284 25 14 314 313 318 338 338 347 350 2 13 326 280 112 3 359 305 286 7 347 323 151 100 89 80 19 349 39 41 103 110 113 97 109 130 140 117 126 242 323 311 265 260 82 16 251 250 247 235 134 139 180 197 227 232 233 232 234 233
326 326 324 321 317 306 300 296 295 291 290 294 296 296 293 288 280 285 284 288 325 343 326 151 150 174 315 295 291 100 251 309 303 335 332 334 335 360 16 0 344 359 44 8 23 4 50 63 71 77 100 65 43 47 331 31 113 117 113 104 107 121 124 324 325 148 175 234 147 242 301 298 122 263 278 184 151 118 149 199 200 203 222 230 230 226 216 235
331 327 325 319 309 298 284 283 284 285 289 292 292 291 289 286 290 292 286 279 303 328 55 109 123 138 248 202 18 110 336 336 337 337 326 338 332 14 15 359 351 353 101 53 51 13 359 45 357 325 30 148 87 33 63 102 116 105 112 106 104 145 89 155 245 181 246 223 179 248 266 284 190 137 236 188 173 174 184 205 211 201 220 237 234 219 218 215
334 330 323 318 310 302 292 288 284 288 290 287 290 291 293 297 305 302 294 289 255 299 59 101 129 52 5 68 58 42 325 314 319 332 334 333 343 30 33 13 13 11 71 100 43 18 3 331 331 47 136 231 68 141 63 147 114 148 170 91 120 151 187 184 214 169 184 255 164 321 290 255 194 234 231 181 172 177 211 216 213 208 218 224 224 222 211 210
335 328 320 316 315 304 289 287 289 292 293 300 312 307 295 295 304 308 310 317 24 346 18 91 163 172 337 52 5 278 344 297 310 348 353 349 319 66 61 36 28 36 37 72 50 357 329 293 88 74 354 74 111 52 152 248 122 167 265 131 132 187 243 182 135 224 213 215 353 309 356 208 211 222 228 135 172 173 220 239 231 232 228 223 216 221 225 229
330 327 320 318 317 306 298 295 298 303 308 335 353 344 320 277 292 310 319 290 297 319 326 8 25 258 83 93 137 211 246 337 294 9 5 332 9 7 21 26 33 33 26 72 49 352 21 50 88 109 53 65 145 241 108 119 70 211 62 49 208 154 192 147 214 133 265 110 172 308 252 312 165 196 152 161 163 179 214 224 233 233 234 214 216 220 233 235
333 331 329 328 319 312 308 302 305 308 305 310 311 307 312 294 292 302 303 320 302 300 332 349 197 227 66 110 261 251 290 169 11 22 15 359 355 338 357 335 359 28 29 40 33 328 331 287 67 44 63 12 82 121 95 170 199 223 67 234 233 225 131 149 335 133 306 150 192 293 267 265 150 149 145 158 180 211 232 246 246 244 236 229 222 216 224 229
335 332 334 330 320 317 315 310 301 300 305 307 298 302 317 284 268 270 277 274 282 330 64 64 231 134 116 72 43 247 51 26 356 4 17 22 358 351 311 296 288 359 12 43 8 282 27 58 69 133 108 337 173 171 150 172 205 166 171 282 144 290 161 150 197 46 333 314 239 223 276 334 57 131 164 175 188 201 227 246 248 248 248 252 235 239 231 254
335 336 334 327 320 318 308 302 293 303 315 301 307 299 281 325 295 271 271 285 318 243 189 358 317 33 53 226 230 36 1 4 351 353 336 75 359 310 323 317 36 324 125 257 240 321 32 56 291 352 224 73 353 296 134 241 193 209 192 229 145 257 332 245 341 38 317 261 301 173 231 246 298 203 181 193 194 181 227 243 254 252 251 245 252 252 275 263
338 335 330 328 317 311 301 294 294 308 303 290 281 320 310 310 314 307 306 307 83 25 5 66 70 25 64 54 26 352 290 346 337 315 280 358 161 327 356 340 333 298 290 305 224 28 302 73 278 117 92 38 23 353 109 193 119 339 357 355 359 294 186 60 88 98 298 207 216 267 249 270 266 268 209 196 187 199 211 228 233 242 236 239 225 224 262 257
336 334 329 325 313 311 302 291 296 296 286 289 294 293 272 283 284 70 35 336 359 341 64 359 1 152 208 24 203 287 334 238 278 301 355 2 335 286 278 239 242 308 333 215 316 3 346 74 66 29 23 15 19 13 48 20 336 343 346 349 284 307 339 39 139 97 4 317 289 233 243 267 276 283 295 175 195 192 217 232 238 238 242 293 255 238 227 238
334 332 329 321 311 310 295 291 290 282 264 239 274 329 352 300 164 3 12 38 63 63 106 317 247 184 101 40 350 295 198 66 349 37 354 16 333 346 275 247 266 238 16 51 330 64 317 67 49 37 7 5 9 12 346 318 296 290 260 281 270 321 104 115 90 314 351 303 237 232 242 261 273 271 261 239 166 203 217 231 251 233 211 210 229 210 208 212
336 332 328 320 318 316 301 299 299 287 242 282 300 359 273 309 294 95 350 56 177 28 35 62 44 65 78 309 345 360 345 348 213 25 13 275 227 327 104 302 224 67 28 227 344 264 74 73 39 36 20 352 322 327 331 310 280 321 313 260 301 85 354 32 66 355 339 20 298 320 325 282 272 267 258 125 145 193 205 232 238 238 217 201 199 218 206 215
337 334 332 328 322 316 312 297 302 302 269 293 265 245 42 95 60 7 124 63 67 272 208 160 248 119 255 189 97 83 185 248 206 21 346 11 179 29 320 332 22 67 252 16 298 35 41 82 66 36 11 277 268 290 278 304 330 318 250 298 316 24 277 93 66 202 181 292 268 356 325 291 278 265 232 153 173 205 193 194 217 207 214 199 184 182 187 154
335 333 330 331 327 318 303 300 283 267 232 216 214 169 85 8 318 138 341 122 98 233 155 18 86 40 110 159 130 141 25 50 309 20 352 342 290 79 289 47 49 102 22 13 147 131 82 81 62 9 336 316 223 272 322 297 286 327 342 10 61 10 24 318 188 287 339 291 293 312 304 291 294 251 109 146 162 165 99 171 265 301 318 208 171 163 160 189
336 330 326 321 325 309 299 284 281 284 46 49 63 53 36 333 323 295 209 141 134 331 48 38 326 40 29 359 356 355 42 3 355 319 360 354 46 275 24 21 83 41 49 39 59 86 105 88 302 284 266 303 345 340 34 7 128 17 41 46 9 19 326 197 303 331 298 189 245 286 268 287 231 91 227 64 44 22 285 231 288 274 252 286 16 22 187 216
332 329 328 328 322 321 289 299 292 27 252 96 70 100 88 355 290 301 212 24 88 81 337 302 261 75 346 279 250 326 74 151 58 284 332 25 340 345 51 148 59 17 338 131 105 89 64 64 325 271 233 256 345 17 16 49 21 96 352 42 154 318 301 302 302 319 352 308 298 18 5 325 291 212 158 170 114 261 198 183 243 233 222 221 245 239 223 228
335 334 337 331 325 323 335 202 112 247 315 60 48 97 74 300 287 302 87 135 48 326 27 43 188 279 190 61 352 60 274 134 256 284 328 118 193 89 197 41 354 126 44 59 93 97 113 163 201 307 337 275 254 72 183 97 345 313 246 297 356 305 295 296 311 8 14 357 305 32 89 284 331 289 117 175 190 212 148 215 232 217 218 204 215 213 216 210
339 335 336 334 330 322 212 184 310 57 74 203 47 9 354 291 326 263 51 355 342 295 32 231 182 292 174 329 68 202 61 315 155 288 64 48 37 51 66 55 76 47 57 145 59 7 150 197 193 292 304 266 239 131 353 38 70 189 218 277 315 243 293 319 331 245 242 266 335 36 70 234 316 300 24 28 358 264 209 224 224 219 214 214 200 203 211 205
340 341 337 329 318 339 12 118 102 118 305 41 309 11 289 317 265 285 70 20 248 313 49 75 339 49 333 37 233 54 182 306 341 351 176 157 65 282 70 46 68 129 181 114 104 243 350 145 328 238 250 264 74 209 22 25 147 234 188 315 282 358 295 284 287 273 247 77 334 357 341 73 247 261 14 114 346 241 240 235 223 210 208 208 203 202 206 203
339 341 336 322 313 318 21 67 5 151 60 337 351 277 338 267 10 82 122 169 243 41 243 106 272 27 189 353 184 142 176 329 97 311 104 87 199 213 83 127 127 116 130 247 157 198 189 25 278 271 283 27 248 84 354 74 205 77 321 166 294 324 249 259 299 293 292 62 281 311 338 155 290 297 212 313 82 316 50 80 74 77 94 197 201 206 202 197
340 343 336 315 296 305 29 93 56 199 246 20 288 317 285 359 40 42 33 270 73 128 322 231 135 289 338 228 33 356 49 18 125 315 330 27 284 120 64 283 152 106 59 40 61 55 116 47 276 43 46 8 27 71 116 251 244 285 335 332 252 219 233 218 220 259 16 48 248 256 299 73 304 265 209 152 213 159 46 77 94 103 71 39 127 178 193 205
345 348 349 336 54 217 304 49 65 50 22 326 342 345 28 46 88 104 210 219 64 255 246 39 297 297 8 42 75 352 121 42 360 360 300 22 60 83 73 358 276 80 105 68 60 147 164 221 186 52 292 33 323 248 173 350 308 347 232 251 152 319 250 356 267 331 71 294 251 246 4 10 161 305 47 161 127 69 89 86 79 62 77 167 173 222 221 219
343 349 13 48 85 324 41 131 6 39 8 18 8 47 35 8 10 194 218 308 129 326 120 189 154 356 40 283 106 347 347 2 30 37 30 12 28 14 344 118 351 102 359 235 344 166 194 115 95 117 60 33 133 291 282 271 230 215 273 297 52 336 44 352 25 7 214 199 243 33 1 19 247 234 189 109 111 109 82 94 114 95 27 38 35 38 326 352
338 334 19 31 8 60 68 255 301 7 22 358 42 223 80 128 231 316 139 333 222 82 299 274 27 4 98 27 56 353 203 66 311 96 46 282 110 358 292 13 189 184 150 234 106 282 288 111 212 111 126 188 293 36 341 1 313 309 27 4 51 18 38 323 306 320 74 312 235 122 336 241 253 232 141 138 139 136 112 119 126 141 155 332 349 346 338 324
334 335 57 28 67 78 100 88 355 34 290 196 133 57 41 65 253 55 152 267 248 279 12 38 10 87 34 85 220 6 43 238 42 50 154 288 212 189 224 83 347 4 51 253 87 242 5 349 337 42 315 291 286 67 150 220 315 259 171 73 156 132 152 249 15 316 224 252 245 308 66 242 43 241 184 145 154 139 129 113 141 150 238 256 281 297 294 291
339 332 115 115 91 65 78 83 202 195 263 209 62 83 122 239 135 147 224 150 259 299 199 300 339 99 6 46 183 236 151 300 232 325 165 339 274 33 42 9 42 44 234 81 280 64 174 196 263 13 226 283 359 155 279 337 330 294 99 83 59 154 122 182 220 176 301 353 338 243 201 176 175 178 101 111 93 188 132 160 114 277 234 229 292 283 280 279
290 167 198 53 41 86 184 221 201 209 258 48 88 74 234 214 265 48 128 64 83 126 162 320 332 52 249 126 339 69 292 106 274 74 316 41 217 113 213 40 7 9 75 115 280 171 28 281 158 185 233 34 100 295 74 64 115 309 27 14 230 306 64 82 40 23 99 70 250 206 320 312 253 23 116 71 131 176 144 188 189 231 219 176 261 276 273 279
241 134 125 123 106 175 197 217 215 222 241 84 91 218 187 310 174 301 23 354 181 23 145 118 259 118 211 201 165 155 212 83 284 126 251 106 13 88 113 134 331 66 58 125 41 66 122 253 249 243 290 258 37 357 347 228 98 4 71 247 226 79 119 122 295 287 219 188 275 64 250 300 25 312 323 123 118 155 169 179 212 206 155 200 256 266 265 55
302 127 148 139 168 154 196 218 211 203 284 79 217 242 133 145 309 336 321 299 128 349 147 310 273 79 220 117 196 146 52 119 272 56 264 217 160 326 101 100 330 35 114 24 112 286 112 326 283 339 59 118 9 11 315 257 162 109 169 236 66 295 20 286 93 360 360 328 288 299 18 272 202 253 154 209 189 189 171 160 158 55 32 20 2 18 31 25
256 214 182 183 163 171 188 220 231 61 59 49 221 300 37 278 350 7 7 323 279 349 258 261 120 336 165 52 182 25 92 181 234 254 58 288 102 342 83 79 87 118 169 233 59 2 15 169 307 300 359 111 274 96 257 281 307 234 290 357 278 98 158 356 195 208 128 263 14 292 12 280 234 219 193 200 205 175 147 146 116 83 41 19 22 15 24 350
326 21 348 203 131 174 142 234 61 36 69 181 297 52 353 330 64 68 33 24 71 68 265 12 257 101 302 232 70 150 323 355 284 262 109 315 106 339 48 269 106 135 77 85 88 182 53 110 276 292 297 39 309 183 219 132 169 242 19 37 5 32 232 135 254 129 169 209 251 280 324 281 271 315 28 183 186 153 154 146 129 95 29 16 349 6 340 320
294 86 290 212 119 128 229 48 49 34 75 39 71 124 337 169 284 112 83 35 324 118 249 359 39 163 183 116 273 248 154 241 300 263 182 278 115 247 7 49 325 141 38 39 66 335 87 112 234 111 7 243 211 355 315 3 341 169 147 172 178 130 265 47 282 47 336 119 240 27 266 274 277 31 48 54 51 92 89 129 125 100 51 317 306 322 307 306
4 53 294 133 79 258 28 58 34 212 64 154 182 355 15 186 20 43 25 55 353 259 134 122 29 92 37 74 165 148 135 185 205 12 345 135 352 57 7 308 350 329 109 101 160 222 135 263 86 272 220 211 284 115 274 169 352 169 111 143 88 220 112 121 139 261 5 274 102 177 339 269 253 340 25 71 43 44 54 84 140 209 263 273 274 262 264 232
52 212 174 129 204 234 62 76 262 53 60 300 266 340 126 333 64 332 335 264 328 275 266 48 5 56 340 123 262 68 18 187 146 255 104 102 186 316 304 353 324 266 85 115 50 331 59 123 315 257 99 126 163 187 261 332 289 4 297 267 10 300 165 161 158 178 186 182 147 61 221 261 278 258 39 88 140 220 279 215 213 234 257 281 266 265 266 297
342 4 358 191 197 246 102 218 145 105 118 20 331 95 315 220 337 169 183 276 315 305 300 140 273 18 150 335 30 148 332 130 350 81 355 339 86 319 358 333 8 69 56 193 126 289 88 273 123 295 310 330 352 356 339 280 39 231 253 195 210 111 77 145 81 77 336 211 185 143 240 267 273 246 272 245 188 230 245 239 195 231 265 253 256 241 252 280
147 254 20 306 59 32 158 182 127 125 140 132 120 32 184 252 343 344 299 119 280 353 295 48 202 147 71 94 109 97 2 77 274 346 162 56 107 331 39 342 340 75 45 43 358 328 104 267 135 148 349 334 287 275 189 348 240 214 163 89 206 151 157 103 274 104 162 270 169 193 256 250 295 205 231 239 227 288 264 241 206 211 230 264 279 255 306 326
102 102 300 359 11 47 56 199 51 119 127 144 128 224 167 128 226 171 260 158 321 236 75 160 246 295 114 81 54 33 24 329 101 301 349 128 155 79 330 346 19 52 72 42 9 171 316 342 197 203 189 212 198 188 294 106 82 178 240 164 208 240 228 201 72 189 208 212 194 232 228 284 287 279 284 291 316 310 328 340 356 352 315 308 304 322 310 290
321 101 100 305 1 38 75 14 20 114 167 192 186 150 159 135 160 159 236 66 17 68 189 234 209 123 245 97 163 83 249 332 28 80 247 115 47 59 310 324 68 83 145 345 246 64 41 311 245 218 247 245 255 271 204 173 233 241 183 233 203 182 188 183 180 221 172 220 274 218 233 242 267 277 278 277 287 326 322 320 320 326 316 299 283 278 298 312
99 251 132 201 148 220 155 345 38 120 292 100 161 165 145 148 166 162 287 57 195 241 88 299 68 260 179 166 150 174 52 353 106 226 351 48 110 263 67 334 339 148 126 86 315 116 157 208 303 88 269 273 277 272 183 179 210 223 225 210 191 203 180 193 224 226 215 183 247 249 342 302 274 271 277 287 306 303 297 290 285 288 284 286 294 334 325 307
71 118 113 186 124 197 134 232 299 135 82 62 139 138 154 162 183 171 158 86 342 326 187 253 255 219 223 272 127 129 162 202 285 253 187 172 173 150 160 20 284 111 316 119 30 254 93 255 210 70 279 287 276 263 252 225 248 246 244 232 220 193 211 208 229 229 221 245 259 275 280 278 277 278 283 292 304 290 278 278 291 295 256 241 243 265 278 292
199 151 261 285 100 141 176 239 243 332 116 320 96 222 169 179 188 189 261 128 116 306 124 181 261 46 193 188 189 154 220 199 193 271 215 129 355 217 211 192 153 345 243 184 138 291 118 278 120 155 345 283 306 32 57 134 177 264 263 241 224 226 225 221 235 250 237 274 261 263 280 280 273 269 290 290 275 263 288 289 270 261 246 203 210 230 266 295
348 8 212 126 82 205 135 284 8 12 64 341 83 235 89 192 224 163 178 182 147 177 182 179 170 119 14 181 210 236 30 62 76 126 188 164 208 215 153 291 126 139 193 170 174 308 116 255 77 86 357 296 328 13 223 231 223 238 262 255 234 215 228 222 212 218 174 225 242 283 272 256 262 286 256 239 243 256 256 266 279 283 274 339 310 297 298 291
349 151 217 87 102 229 143 65 353 64 353 233 113 173 139 173 46 118 87 72 49 47 174 206 220 121 95 35 233 213 22 11 95 112 77 108 116 102 97 106 128 154 165 179 153 137 190 194 201 172 264 254 282 263 269 312 327 298 261 240 227 212 212 228 240 219 212 200 199 216 237 232 261 291 297 289 247 257 283 282 303 306 295 289 285 284 284 280